Simultaneous Nadir Overpasses (SNOs) Predictions

Prediction of SNOs between FY3D and AQUA Satellite Orbit:

Table of predicted SNOs for the next 14.0 days since TLE Epoch: 6/10/2023
Index Date (FY3D) Time (FY3D) Lat,Lon (FY3D) SZA (FY3D ) Date (AQUA) Time (AQUA) Lat,Lon (AQUA) SZA (AQUA ) Distance(km) Time Diff (sec)
1 06/11/2023 18:10:44 -78.70, 67.97 123.77 06/11/2023 18:11:33 -78.70, 68.02 123.79 1.16 49
2 06/11/2023 19:01:17 78.22,-121.80 55.58 06/11/2023 19:00:47 78.22,-121.85 55.60 1.18 30
3 06/14/2023 07:56:22 78.67, 41.81 56.05 06/14/2023 07:57:12 78.67, 41.79 56.03 0.47 50
4 06/14/2023 08:46:58 -78.30,-148.64 124.46 06/14/2023 08:46:27 -78.30,-148.60 124.46 0.76 31
5 06/16/2023 21:41:59 -78.64, 15.63 124.10 06/16/2023 21:42:48 -78.65, 15.53 124.10 2.53 49
6 06/16/2023 22:32:36 78.31,-175.05 55.46 06/16/2023 22:32:05 78.31,-175.03 55.46 0.58 31
7 06/19/2023 11:27:38 78.65, -10.83 55.87 06/19/2023 11:28:26 78.65, -10.88 55.86 1.20 48
8 06/19/2023 12:18:15 -78.32, 158.50 124.58 06/19/2023 12:17:42 -78.32, 158.53 124.58 0.81 33
9 06/22/2023 01:13:19 -78.74, -37.78 124.02 06/22/2023 01:14:04 -78.74, -37.71 124.04 1.52 45



Historial Predications of SNOs between FY3D and AQUA
